Flag Weather past 2 weeks in Shenzhen, Guangdong, China

Now
77 °F

Clear.


Feels Like: 79 °F
Forecast: 71 / 87 °F
Wind: 6 mph from Southeast

Location: Shenzhen Airport

Current Time: Oct 31, 2014 at 12:56:22 AM

Latest Report: Oct 31, 2014 at 12:00 AM


Visibility: 4 mi

Pressure: 29.98 "Hg

Humidity: 74%

Dew point: 68 °F

Location of ShenzhenLocation

Historic Weather in Shenzhen — Graph

°F

Shenzhen temperature yesterday

Maximum temperature yesterday: 86 °F (at 11:00 AM)
Minimum temperature yesterday: 75 °F (at 5:00 AM)
Average temperature yesterday: 80 °F

Past Weeks' High & Low Weather Summary

 TemperatureHumidityPressure
High90 °F (Oct 27, 12:00 PM)89% (Oct 20, 5:00 AM)30.09 "Hg (Oct 20, 5:00 AM)
Low72 °F (Oct 17, 5:00 AM)40% (Oct 17, 2:00 PM)29.89 "Hg (Oct 20, 3:00 PM)
Average80 °F67%30.01 "Hg
* Reported Oct 15 11:00 PM — Oct 30 11:00 PM, Shenzhen, Weather by CustomWeather, © 2014

Note: Actual official high and low records may vary slightly from our data, if they occured in-between our weather recording intervals... More about our weather records

Advertising

Shenzhen weather history for previous 24 hours

 ConditionsComfort  
Time TempWeatherWind HumidityBarometerVisibility
11:00 PM
Oct 30
77 °FClear.6 mph74%29.98 "Hg4 mi
10:00 PM77 °FClear.8 mph69%29.98 "Hg10 mi
9:00 PM79 °FClear.6 mph61%29.98 "Hg10 mi
8:00 PM81 °FClear.6 mph58%29.98 "Hg10 mi
7:00 PM81 °FClear.10 mph58%29.95 "Hg10 mi
6:00 PM81 °FClear.10 mph74%29.92 "Hg10 mi
5:00 PM82 °FSunny.8 mph66%29.92 "Hg10 mi
4:00 PM82 °FScattered clouds.8 mph70%29.95 "HgN/A
3:00 PM84 °FScattered clouds.8 mph66%29.95 "HgN/A
2:00 PM84 °FScattered clouds.10 mph62%29.95 "HgN/A
1:00 PM86 °FScattered clouds.6 mph59%29.98 "HgN/A
12:00 PM84 °FPartly sunny.8 mph62%30.01 "HgN/A
11:00 AM86 °FPassing clouds.6 mph55%30.01 "HgN/A
10:00 AM82 °FScattered clouds.8 mph62%30.04 "HgN/A
9:00 AM81 °FPassing clouds.8 mph66%30.04 "HgN/A
8:00 AM79 °FPassing clouds.6 mph70%30.01 "HgN/A
7:00 AM77 °FPassing clouds.6 mph74%30.01 "HgN/A
6:00 AM75 °FClear.3 mph78%30.01 "Hg10 mi
5:00 AM75 °FClear.8 mph78%29.98 "Hg10 mi
4:00 AM77 °FPassing clouds.6 mph74%29.95 "HgN/A
3:00 AM77 °FClear.3 mph79%29.98 "Hg10 mi
2:00 AM77 °FClear.1 mph74%29.98 "Hg10 mi
1:00 AM77 °FPassing clouds.8 mph74%30.01 "HgN/A
12:00 AM79 °FClear.8 mph70%30.01 "Hg10 mi
Weather by CustomWeather, © 2014

See weather overviewHow to use our weather pages